User: anonymous   Login
Location: Bowman Observatory
(41.0326°N, 73.6210°W)
Time: 17:28:22
(UTC-04:00)
Language:

Cosmos 2297 - Orbit

View from above orbital plane
View from above orbital plane
View from above satellite
View from above satellite

Ground track
Ground track

The orbit data is extracted from the following two-line orbital elements,

1 23404U 94077A   15245.95689822 -.00000210 +00000-0 -86177-4 0  9994
2 23404 071.0127 220.3815 0013557 053.8372 007.0264 14.13458255071727
Epoch (UTC): 02 September 2015 22:57:56
Eccentricity: 0.0013557
inclination: 71.0127°
perigee height: 838 km
apogee height: 857 km
right ascension of ascending node: 220.3815°
argument of perigee: 53.8372°
revolutions per day: 14.13458255
mean anomaly at epoch: 7.0264°
orbit number at epoch: 7172

The dashed part of the orbit path shows where the satellite is in the earth's shadow,  

DLR